Location: Newark
(45.9456°N, 15.4064°E)
Time: 01:09:51
(UTC+00:00)

Vanguard 3 - Pass Details

Date: 01 February 2020
Orbit: 508 x 3263 km, 33.3° (Epoch: 26 February)

Event Time Altitude Azimuth Distance (km) Brightness Sun altitude
Rises 11:38:23 0° 186° (S) 5,584 12.8 26.6°
Reaches altitude 10° 11:43:25 10° 170° (S) 5,050 12.6 26.5°
Maximum altitude 11:52:49 19° 132° (SE) 4,978 11.7 26.2°
Drops below altitude 10° 12:03:57 10° 96° (E) 6,150 11.6 25.8°
Sets 12:11:05 0° 82° (E) 7,231 11.8 25.5°
